OBJECT U (43776 NORAD) Tracking and Keplerian Element Data

This shows tracking and keplerian element data for the satellite.

Feedback or suggestion? Click here.




ElementValue
Catalog43776
NameOBJECT U
Epoch Orbit1394
Epoch Day66.19621394
Epoch Year2019
RAAN139.3851
Inclination97.7561
Eccentricity0.0013595
Argument of Perigee314.3655
Mean Anonmoly45.6451
Mean Motion14.94868963
Decay Rate1.26E-06
L11 43776U 18099U 19066.19621394 .00000126 00000-0 16876-4 0 9992
L22 43776 97.7561 139.3851 0013595 314.3655 45.6451 14.94868963 13944

Live tracking and technical data element details for OBJECT U (NORAD 43776). OBJECT U can be tracked NOW for your location showing map with azimuth and elevation plus other details from your city location.

Track the satellite on the map from your city or location and see movement details for azimuth, elevation, latitude, longitude, range, height, and movement on the map or in text.







IsCatalogInMostPopularTable: catalog: 43776, numindb: 58
Update: records affected: 1



GetName: 43776 OBJECT U

Hit Count: updated at: Mon, 22 Jul 2019 15:53:56 GMT